This is the latest recevied weather packets stored in our database for station/object SQ3RAX-13. If no packets are shown the sender has not sent any weather packets the latest 10 day(s).
| Time | Temp. | Humidity | Pressure | Rain* | Wind** | Luminosity | Snow |
|---|---|---|---|---|---|---|---|
| 1777625699 | 17.22° C | 49% | 1028 hPa | 0 mm | - | - | - |
| 1777625099 | 16.67° C | 49% | 1028 hPa | 0 mm | - | - | - |
| 1777624499 | 16.67° C | 50% | 1028 hPa | 0 mm | - | - | - |
| 1777623899 | 16.11° C | 50% | 1028 hPa | 0 mm | - | - | - |
| 1777623299 | 15.56° C | 51% | 1028 hPa | 0 mm | - | - | - |
| 1777622699 | 15° C | 53% | 1028 hPa | 0 mm | - | - | - |
| 1777622099 | 15° C | 53% | 1028 hPa | 0 mm | - | - | - |
| 1777621499 | 14.44° C | 54% | 1028 hPa | 0 mm | - | - | - |
| 1777620899 | 14.44° C | 54% | 1028 hPa | 0 mm | - | - | - |
| 1777620299 | 13.89° C | 55% | 1028 hPa | 0 mm | - | - | - |
| 1777619699 | 13.33° C | 57% | 1028 hPa | 0 mm | - | - | - |
| 1777619099 | 12.78° C | 61% | 1028 hPa | 0 mm | - | - | - |
| 1777618499 | 12.78° C | 61% | 1028 hPa | 0 mm | - | - | - |
| 1777617899 | 12.78° C | 61% | 1028 hPa | 0 mm | - | - | - |
| 1777617299 | 11.67° C | 62% | 1028 hPa | 0 mm | - | - | - |
| 1777616699 | 11.67° C | 62% | 1028 hPa | 0 mm | - | - | - |
| 1777616099 | 10.56° C | 66% | 1028 hPa | 0 mm | - | - | - |
| 1777615499 | 10.56° C | 66% | 1028 hPa | 0 mm | - | - | - |
| 1777614899 | 10.56° C | 66% | 1028 hPa | 0 mm | - | - | - |
| 1777614299 | 10° C | 69% | 1028 hPa | 0 mm | - | - | - |
| 1777613699 | 10° C | 69% | 1028 hPa | 0 mm | - | - | - |
| 1777613099 | 7.78° C | 74% | 1027 hPa | 0 mm | - | - | - |
| 1777612499 | 7.78° C | 74% | 1027 hPa | 0 mm | - | - | - |
| 1777611899 | 7.22° C | 78% | 1028 hPa | 0 mm | - | - | - |
| 1777611299 | 7.22° C | 78% | 1028 hPa | 0 mm | - | - | - |
* Rain latest hour (hover to see other rain measurements)
** Current wind speed in m/s (hover to see current wind gust speed)